GFSSW_con_3kmhel_078.txt.gz
Helicity
45 -7 -26 12 26 35 41 52 62 56 68 100 110 96 97 87 41 -4 4 -7 5 7 1 3 11 13 14 21 32 38 54 44 30 43 -2 -26 -47 -29 -23 14 57 82 92 114 101
8 11 15 14 22 35 43 58 70 65 71 100 114 108 100 81 20 10 -7 5 12 6 17 20 21 23 29 34 33 54 72 34 42 42 8 -33 -37 -24 -13 -0 30 53 62 131 136
4 16 19 18 22 38 49 57 82 82 81 95 108 118 101 51 41 20 14 16 14 14 22 13 23 30 37 33 48 43 67 48 40 51 48 -4 3 38 52 12 110 25 -3 71 110
-5 7 20 21 30 34 47 58 86 94 87 94 104 110 92 53 60 52 31 46 38 31 27 32 30 42 53 43 43 51 52 70 51 67 64 46 40 75 130 156 85 37 60 85 93
11 7 19 26 30 40 42 57 88 100 91 94 104 100 60 71 50 26 54 54 49 41 36 35 40 35 50 47 44 71 53 42 38 54 66 80 90 62 54 55 51 40 29 -1 84
-3 5 24 31 30 32 42 54 84 107 94 93 99 97 64 71 51 36 45 49 47 50 37 36 29 26 38 49 51 41 36 38 27 82 56 49 34 44 80 58 40 10 28 15 6
14 14 20 19 25 34 49 65 93 99 98 102 90 62 65 44 56 45 56 65 53 42 36 34 46 54 49 54 45 43 49 44 47 69 45 13 38 20 67 49 -14 35 53 39 32
16 14 13 10 22 32 49 81 98 98 83 88 69 62 40 49 58 61 61 77 79 78 56 47 53 67 61 55 67 63 53 67 54 48 40 19 56 39 77 43 42 79 83 89 66
10 16 12 12 32 41 62 92 106 98 63 60 65 60 32 60 57 58 79 70 93 93 95 76 73 73 83 85 74 71 52 53 47 56 52 34 65 58 28 28 44 67 69 74 87
22 24 21 21 31 50 72 82 94 79 72 59 64 67 50 51 63 70 95 93 82 88 78 83 88 90 95 97 65 60 51 49 77 22 31 47 64 48 2 31 62 50 68 80 78
30 29 15 22 33 53 75 94 113 109 88 54 60 88 39 74 65 64 74 109 99 91 66 80 83 80 59 62 67 52 51 55 84 20 27 43 40 34 89 94 81 74 93 102 93
21 20 19 32 43 55 77 64 60 55 52 26 53 46 52 39 41 63 83 78 82 63 84 80 50 57 78 71 54 49 51 45 12 17 18 40 19 60 113 81 65 69 87 99 97
28 29 30 47 57 54 44 34 59 51 32 45 51 51 62 95 49 39 81 87 78 73 69 64 55 64 51 47 44 44 41 38 19 32 37 22 24 59 72 73 71 64 75 92 91
48 46 53 68 76 59 39 38 37 34 64 47 46 45 70 96 29 92 96 100 98 35 56 32 46 30 49 40 54 42 28 28 31 39 16 43 35 39 71 75 78 82 96 106 75
67 63 61 89 71 74 70 70 52 56 114 40 68 76 89 108 64 86 138 163 102 74 73 46 43 35 46 43 44 18 45 37 33 49 53 48 74 42 78 67 85 81 108 101 72
81 73 80 101 99 80 83 88 88 120 96 39 49 62 108 120 131 89 81 140 99 85 57 19 47 28 34 67 61 59 50 66 62 55 60 53 89 70 102 84 126 86 100 86 84
91 68 78 96 97 85 85 125 158 109 76 44 41 51 69 73 77 75 69 84 74 81 51 54 53 79 81 76 72 81 74 41 51 69 59 68 104 81 129 113 87 128 108 81 61
103 88 84 110 109 111 150 177 123 71 74 55 58 88 43 50 46 74 78 64 24 54 69 67 73 60 67 79 57 68 60 62 61 57 62 74 86 140 112 88 107 178 135 97 49
96 133 117 123 117 168 180 190 87 57 71 70 84 67 60 68 80 92 55 44 33 103 59 62 60 73 82 79 82 64 62 72 100 85 90 82 86 100 145 195 199 182 139 76 48
146 139 135 170 130 207 196 154 92 80 96 80 80 82 66 73 85 72 59 51 58 53 94 60 88 83 88 95 114 88 80 105 103 66 52 87 83 109 115 143 179 178 105 26 21
171 169 159 203 196 247 209 168 65 91 99 91 83 93 81 73 78 84 72 60 46 60 78 87 99 79 90 62 73 118 116 145 126 145 108 98 50 43 92 168 182 88 31 -27 -5
159 186 188 246 276 268 223 145 81 102 104 107 111 100 88 92 100 98 84 67 36 55 67 73 90 77 51 71 87 96 100 137 146 112 188 199 149 82 170 197 106 6 -7 -17 2
166 186 208 258 231 273 251 158 125 119 106 102 102 103 101 98 117 76 74 96 78 76 55 43 110 107 96 111 101 93 101 148 184 193 206 242 154 122 161 137 103 36 -38 -0 93
205 255 243 218 260 193 235 157 143 114 96 117 102 114 104 99 96 101 78 80 96 105 131 138 142 123 106 72 83 84 88 133 195 224 228 353 225 211 141 85 113 19 30 103 124
296 175 144 189 225 210 187 110 168 140 120 88 113 98 92 100 109 94 84 92 101 105 138 142 122 123 96 94 124 121 112 153 229 249 267 221 233 190 164 133 65 62 136 115 89
190 225 263 193 231 206 198 173 130 134 134 136 121 63 115 127 102 52 72 89 87 137 146 181 136 125 105 108 99 105 98 122 194 217 268 231 127 177 127 163 165 117 87 76 65
204 240 202 177 200 207 178 191 119 119 84 96 79 128 113 70 102 117 98 102 104 101 126 161 183 163 113 122 116 91 127 130 183 161 141 173 114 163 161 123 94 73 84 85 48

GFSSW_con_3kmhel_081.txt.gz
Helicity
35 34 2 -8 11 22 35 45 57 74 89 107 92 83 74 79 49 5 4 -4 0 9 4 8 13 11 11 9 13 20 51 52 38 46 19 6 9 -3 8 23 57 66 88 78 73
14 38 29 -1 13 25 33 40 51 75 96 112 108 91 87 73 23 8 0 8 11 9 16 20 23 22 33 34 25 40 66 39 39 45 28 27 7 -13 -2 1 24 59 61 74 86
21 7 35 10 -3 24 34 33 45 71 104 118 118 108 94 58 47 30 25 11 14 13 22 20 27 31 38 35 44 38 56 44 36 46 35 12 22 23 32 7 49 6 2 38 65
11 18 18 19 29 34 26 30 48 70 102 123 116 129 104 57 67 57 29 40 33 33 30 35 35 40 47 39 40 54 43 49 46 52 55 35 31 42 86 60 19 22 13 21 8
10 13 29 24 27 23 23 29 47 84 99 117 118 115 80 73 57 23 58 66 55 45 38 30 34 34 39 45 54 69 47 39 32 43 41 58 45 40 53 37 42 27 24 22 15
24 23 11 18 33 26 23 36 51 81 102 117 108 104 79 70 57 38 37 57 55 58 39 36 25 25 39 50 56 40 43 38 29 57 49 35 42 45 65 55 26 44 62 57 43
52 32 15 11 24 29 34 51 63 81 107 132 103 64 72 55 59 50 54 57 50 56 45 39 43 52 53 54 43 48 56 49 53 92 55 18 56 44 59 40 35 72 115 109 99
63 57 14 10 18 34 43 49 57 83 97 107 92 69 48 62 61 60 67 95 93 92 73 64 60 62 64 56 62 71 69 93 71 64 43 39 73 44 83 58 72 106 124 139 144
28 49 28 5 15 31 50 59 73 86 77 82 84 74 45 62 76 70 78 73 102 102 105 90 88 72 80 88 70 82 73 72 71 68 53 44 66 40 30 38 82 128 132 138 126
36 43 39 30 30 41 52 63 80 87 80 74 93 91 52 60 78 93 118 114 96 92 84 93 92 81 93 93 59 70 71 62 88 40 50 45 34 14 5 46 137 131 121 123 125
33 48 31 28 29 41 65 88 117 86 89 73 49 101 38 94 59 112 116 140 124 114 71 82 81 54 51 66 79 76 60 64 66 26 39 50 26 26 87 168 179 132 123 118 117
35 42 18 27 33 48 67 67 61 57 68 24 57 63 77 36 101 84 78 100 93 77 89 87 41 44 74 90 75 60 59 58 33 20 23 44 27 49 98 129 130 124 117 114 72
43 40 32 41 57 60 28 15 66 52 45 60 67 62 80 73 55 27 80 86 77 87 68 59 49 59 52 62 58 44 69 58 34 29 36 26 40 62 89 96 101 114 112 112 111
51 41 45 86 92 55 20 29 48 45 54 53 64 64 80 98 62 101 90 90 86 43 58 37 58 46 49 39 75 49 28 36 39 38 31 43 32 42 72 105 125 151 132 106 87
62 62 63 87 86 73 52 54 58 63 84 39 73 73 104 109 55 131 160 152 82 79 91 52 48 58 60 34 33 28 38 49 53 54 41 55 61 56 115 104 123 145 133 106 79
78 79 105 97 83 63 68 101 102 112 79 38 46 62 97 143 121 90 89 136 105 114 95 41 63 45 34 52 41 54 69 72 67 56 51 54 56 53 96 89 146 172 133 104 82
95 91 116 109 89 65 77 140 168 97 68 49 32 49 98 99 117 107 83 101 96 117 72 59 44 59 74 73 83 81 74 55 52 64 58 65 64 49 90 106 127 155 124 94 79
109 116 104 104 98 78 126 198 123 69 71 41 63 79 62 70 78 93 92 76 56 78 80 74 67 56 59 74 63 71 67 68 58 59 61 64 49 68 60 60 98 172 160 127 88
132 168 147 120 104 130 180 195 85 61 66 60 60 73 74 62 53 76 53 41 31 80 66 77 69 64 70 72 78 67 80 68 106 80 72 65 66 54 127 164 220 187 178 134 110
183 163 143 175 144 181 192 172 116 88 76 73 73 66 46 57 73 58 57 53 63 56 80 59 89 73 74 81 102 81 82 103 104 69 58 61 59 74 120 181 192 175 158 142 92
197 191 184 174 196 234 207 167 97 92 87 74 69 84 68 62 62 67 49 61 42 58 101 94 97 78 83 63 84 120 112 146 122 121 80 77 43 74 86 140 175 175 167 83 50
183 254 212 262 263 258 205 121 93 91 115 94 91 88 65 74 82 81 74 79 49 72 66 71 102 82 75 83 82 93 99 125 141 97 141 148 107 117 61 193 226 168 82 54 62
224 229 225 271 216 241 226 134 93 121 106 94 92 92 89 86 104 80 84 87 69 75 72 66 112 117 108 110 109 93 101 145 177 170 161 153 138 172 160 234 246 169 115 133 111
205 231 258 230 264 212 244 129 124 117 105 118 116 127 128 116 96 89 81 81 93 86 104 133 129 110 98 82 104 95 95 128 193 176 199 280 236 275 214 166 220 189 155 143 122
239 198 193 263 252 223 168 93 121 131 130 119 151 130 113 111 136 117 94 99 107 96 129 132 110 115 101 111 113 104 111 156 214 226 222 155 244 210 192 176 209 224 192 151 156
214 245 283 191 229 256 194 168 116 147 132 130 132 71 126 139 105 68 85 93 91 133 136 167 130 121 111 128 107 111 91 136 178 183 246 211 139 194 193 315 307 237 186 167 144
213 205 196 214 238 200 253 226 153 155 93 85 88 149 125 63 110 129 119 113 106 105 124 156 163 147 108 125 116 121 124 157 195 234 209 161 119 123 162 171 177 154 149 118 102

GFSSW_con_3kmhel_084.txt.gz
Helicity
27 15 -0 7 -1 -7 14 25 41 53 80 97 113 105 88 75 75 -3 1 8 -2 15 -15 3 6 12 9 20 18 8 10 25 22 27 41 56 43 34 15 16 25 32 20 53 46
14 14 27 6 -10 -13 -2 24 30 59 79 97 111 105 88 71 41 10 18 6 15 10 -5 1 17 13 26 28 26 17 26 29 34 30 27 19 12 14 7 9 6 23 41 33 26
29 41 20 25 36 -6 -3 22 31 63 81 102 111 106 91 72 49 31 29 10 12 -2 8 16 21 18 29 22 35 35 29 42 34 20 12 11 6 30 16 20 42 -0 7 20 23
45 45 14 9 19 -3 2 31 29 57 87 106 113 109 111 52 69 57 37 29 24 15 20 20 16 20 27 30 37 26 26 30 50 39 25 20 25 23 24 25 29 37 25 9 18
18 85 16 4 1 14 16 21 31 64 88 102 112 107 82 64 59 45 52 60 44 31 20 19 20 19 32 39 32 25 41 38 28 21 16 23 18 31 40 53 55 35 17 31 35
-18 -1 9 3 9 15 32 42 49 53 84 103 100 121 78 64 61 26 32 68 57 50 41 21 24 23 32 40 32 43 32 30 29 28 37 35 51 43 70 65 42 31 52 58 62
-3 -4 22 24 -3 35 45 56 51 52 83 98 96 84 71 67 68 52 45 54 64 54 46 43 33 11 31 43 46 34 26 38 49 74 76 31 53 52 99 54 49 65 85 95 92
70 61 37 22 22 9 11 26 59 76 81 86 85 70 64 66 65 59 64 92 91 101 89 69 50 55 38 53 34 35 33 57 80 68 69 43 85 98 96 90 83 90 111 119 130
58 52 69 41 35 25 57 68 77 86 79 76 66 80 57 58 80 58 56 78 104 111 105 82 62 57 43 46 33 45 54 64 76 86 66 58 66 77 69 57 84 111 132 132 134
67 73 75 61 37 38 74 79 93 83 69 69 86 65 40 60 93 99 101 77 107 91 71 60 50 30 54 51 65 61 49 59 68 69 45 30 19 23 11 66 134 140 140 141 154
61 65 63 74 81 87 97 97 80 55 89 88 53 110 42 123 99 126 126 132 126 76 39 72 34 39 50 43 60 58 50 39 55 56 46 47 22 18 41 152 202 178 139 131 126
68 53 53 83 91 113 134 83 63 76 47 -3 47 32 100 44 99 83 98 92 92 49 89 54 32 45 60 74 69 56 47 37 37 43 30 40 29 56 120 210 206 164 124 110 89
65 55 66 89 100 111 63 -21 68 51 57 55 50 40 55 55 46 73 59 83 65 56 44 28 81 59 41 52 52 46 40 47 37 34 30 28 36 79 123 149 143 114 105 98 94
68 64 78 132 94 60 -8 -67 21 40 45 22 79 76 82 71 72 121 70 95 84 37 51 35 73 46 49 35 22 39 33 32 31 30 41 48 61 62 108 131 130 133 119 119 112
75 73 73 101 89 71 38 14 21 45 81 45 94 111 137 121 81 137 164 113 44 67 67 69 46 44 54 57 27 77 62 46 34 31 40 51 60 135 141 132 152 157 167 143 130
83 72 106 94 90 60 40 51 44 78 79 35 59 82 114 166 133 95 154 170 133 90 72 65 74 52 62 77 52 51 46 43 45 45 43 90 84 71 115 102 173 195 183 152 119
91 91 107 100 70 67 78 108 128 99 63 42 36 52 63 121 116 89 65 72 68 71 34 50 34 65 65 49 56 47 38 41 32 52 86 80 69 76 64 101 161 205 189 150 121
105 120 108 115 103 91 154 176 124 69 61 43 71 65 72 76 79 100 87 66 77 80 75 56 80 61 53 56 74 38 61 66 82 74 86 75 62 77 84 69 163 180 171 168 141
156 159 123 93 112 140 165 170 132 72 71 52 75 107 58 74 75 90 59 57 48 52 68 73 87 70 70 82 90 70 66 90 93 76 63 90 68 38 42 67 122 185 221 194 163
245 176 132 116 113 176 187 174 139 97 68 77 72 49 72 46 46 35 37 43 55 24 48 67 93 81 78 77 88 78 93 85 81 78 68 73 66 64 51 65 168 214 202 202 174
238 250 145 168 173 215 189 159 128 94 89 58 52 81 72 63 39 49 51 62 43 70 69 71 97 91 85 55 70 112 100 110 115 125 108 85 61 66 57 76 136 183 232 222 164
284 265 228 259 259 254 178 147 117 107 98 93 86 92 62 54 67 59 57 67 51 62 60 74 88 71 86 91 105 106 94 73 97 106 155 166 78 102 70 103 152 219 262 217 181
289 322 218 353 221 271 235 152 123 102 91 83 74 85 81 71 88 68 71 88 73 75 100 86 102 102 87 82 93 100 100 119 144 147 107 111 103 105 109 141 171 211 258 250 187
282 290 285 272 248 206 270 141 133 119 101 105 88 108 103 101 104 81 80 94 83 85 94 82 117 96 83 127 104 86 87 83 95 116 83 128 50 103 159 163 229 274 278 264 243
307 232 272 296 256 250 146 94 104 116 122 115 114 105 89 97 115 115 110 105 104 99 117 120 118 104 83 99 107 104 103 104 141 81 126 47 53 59 116 140 189 276 316 301 290
288 285 319 213 203 269 183 121 86 103 106 126 111 53 81 89 77 51 82 99 99 119 129 150 128 121 106 114 94 103 75 83 98 83 104 81 58 42 101 135 164 254 345 290 238
273 315 231 213 151 203 207 151 149 110 103 106 69 95 101 56 69 105 127 117 111 97 105 144 147 122 102 107 94 93 84 97 125 124 103 96 45 136 117 105 93 168 249 216 162

GFSSW_con_3kmhel_087.txt.gz
Helicity
14 40 35 4 1 -23 -11 16 21 27 51 83 87 95 79 82 107 -1 7 19 5 29 -24 -8 -20 -8 -9 14 11 6 9 16 21 25 27 82 14 35 -19 -3 -1 18 -4 63 46
12 10 39 21 35 16 -2 -1 7 35 51 86 88 90 85 84 69 10 10 14 14 14 -19 -13 0 -4 7 15 12 6 12 18 51 39 40 53 24 23 -4 -13 -5 14 33 22 24
4 11 16 33 26 25 21 -7 -1 53 58 77 92 91 93 94 64 21 56 26 13 -15 -23 -9 -1 -4 11 10 24 32 9 62 20 35 43 33 19 40 13 15 56 40 26 32 21
19 10 21 35 20 18 26 -29 24 56 70 65 89 94 109 57 111 76 48 38 10 -17 -14 -2 -2 10 25 17 28 24 28 31 46 42 38 37 44 18 22 36 44 31 29 18 22
40 29 41 28 11 11 27 24 26 48 65 72 82 97 95 74 75 28 49 52 19 -2 -16 -1 8 21 24 27 17 16 34 44 30 19 15 32 15 29 50 49 55 40 22 33 41
55 52 24 20 19 18 26 30 30 32 63 81 82 122 84 97 61 19 31 48 28 12 11 4 28 31 25 26 23 56 32 23 28 18 37 52 49 61 81 42 28 21 41 52 57
60 44 -6 19 19 19 44 31 36 37 62 89 81 80 75 95 60 48 22 40 61 44 30 38 27 10 36 25 32 17 14 18 39 55 64 55 47 51 113 57 43 37 53 66 73
59 38 11 24 27 39 39 22 23 43 62 76 76 68 65 68 64 45 52 60 58 67 74 54 33 29 20 49 15 16 26 25 103 53 69 43 104 117 95 71 62 70 78 83 96
88 88 68 46 27 31 21 26 22 55 53 58 63 73 64 41 65 43 44 65 84 82 86 61 30 30 19 16 21 36 35 48 75 69 76 40 100 109 75 94 61 83 105 113 113
86 98 97 91 79 92 24 2 8 21 55 59 59 71 20 41 60 76 62 78 83 68 55 33 24 19 18 26 43 95 42 52 45 84 54 23 17 73 57 39 53 108 128 131 139
82 89 72 80 106 109 69 31 15 34 52 78 68 61 93 73 50 78 73 78 69 46 27 8 34 41 31 35 33 48 39 35 52 105 39 26 52 42 45 39 127 156 157 159 140
82 96 89 97 132 99 122 89 14 106 75 8 12 61 66 39 64 64 92 79 75 28 16 64 32 23 85 60 37 29 33 34 55 74 39 23 31 57 18 66 146 188 192 159 119
81 93 104 105 142 149 95 73 123 99 36 23 5 17 24 52 26 41 49 47 43 21 37 29 78 93 69 42 23 19 22 45 55 37 15 17 27 85 104 165 191 175 167 129 107
89 101 116 118 141 121 61 44 74 91 39 6 61 37 44 45 62 93 52 63 61 38 29 49 88 48 31 30 35 36 63 26 21 46 82 34 90 57 116 122 126 152 131 138 123
95 106 91 41 136 95 55 38 1 74 55 42 95 175 118 85 86 111 107 88 36 58 83 81 43 47 28 31 46 63 65 40 30 29 34 32 59 48 178 144 148 153 162 150 126
108 110 90 121 129 90 79 51 52 77 40 19 36 72 90 78 118 110 120 145 135 59 45 81 92 60 79 75 64 61 35 24 29 32 43 48 70 115 142 105 126 167 195 186 163
96 133 119 108 125 65 74 79 124 103 51 32 23 42 28 108 104 96 63 77 93 73 28 31 34 77 79 68 59 33 32 56 25 44 93 74 63 77 76 37 101 176 231 222 190
138 130 128 163 138 87 98 73 97 64 58 55 57 38 13 59 54 73 52 31 20 33 95 48 34 45 46 47 35 32 14 54 82 81 111 54 50 100 87 98 89 195 196 213 216
146 150 175 122 145 132 116 62 80 71 73 53 38 49 37 45 70 51 29 26 32 32 57 41 76 106 83 101 99 68 60 90 78 63 62 55 60 78 93 56 71 150 207 258 231
255 216 164 144 160 168 108 -6 55 116 94 56 58 11 46 24 58 40 46 39 50 25 9 76 97 64 71 69 72 96 106 85 67 77 48 47 52 57 56 57 70 114 202 233 222
229 311 164 141 226 166 136 40 105 95 97 64 68 51 45 56 16 58 68 51 11 50 19 82 86 75 79 52 65 86 78 77 102 109 92 70 64 130 66 65 45 93 137 183 258
272 250 208 185 263 123 95 74 140 78 93 83 105 67 49 38 32 32 46 70 52 41 85 42 93 62 77 92 103 93 43 49 68 76 71 112 67 93 67 85 77 103 123 211 239
266 304 328 300 240 151 126 107 136 93 106 77 83 89 83 47 70 50 60 74 48 46 54 63 59 77 53 65 75 89 60 61 59 94 71 81 62 96 60 51 96 138 233 246 287
333 329 319 304 147 115 157 118 135 132 130 114 117 95 82 81 88 61 67 87 76 76 105 88 111 57 58 153 136 68 48 49 64 73 52 73 25 38 74 67 129 132 250 263 302
303 201 295 259 190 287 145 139 128 105 133 90 97 79 77 83 72 84 84 95 98 91 96 110 83 52 42 83 81 74 74 68 88 74 80 32 35 13 42 112 156 163 256 328 359
248 306 284 202 197 306 195 138 127 74 80 109 102 58 63 61 66 60 64 83 90 80 87 115 110 114 53 67 60 71 80 57 63 64 56 42 34 8 41 76 144 129 305 329 362
319 315 187 234 156 243 222 108 90 59 90 88 62 80 78 57 90 136 140 133 146 95 82 120 124 100 66 130 71 71 48 59 58 55 69 62 18 93 92 107 130 104 306 311 244